Location: Isle of Man Observatory
(54.1776°N, 4.6264°W)
Time: 11:59:56
(UTC+01:00)

ACS3 Solar Sail - Visible Passes

Search period start: 09 December 2025 00:00
Search period end: 19 December 2025 00:00
Orbit: 888 x 1002 km, 97.3° (Epoch: 08 December)

Date Brightness Start Highest point End Pass type
(mag) Time Alt. Az. Time Alt. Az. Time Alt. Az.
09 Dec 3.9 04:55:17 10° N 04:56:34 17° N 04:56:34 17° N visible
09 Dec 3.6 06:39:09 10° N 06:40:34 15° NNW 06:40:34 15° NNW visible
10 Dec 4.6 03:28:37 10° NNE 03:28:38 10° NNE 03:28:38 10° NNE visible
10 Dec 3.8 05:11:17 10° N 05:12:37 17° N 05:12:37 17° N visible
10 Dec 3.6 06:55:26 10° N 06:56:37 13° NNW 06:56:37 13° NNW visible
11 Dec 4.4 03:44:19 10° NNE 03:44:36 11° NNE 03:44:36 11° NNE visible
11 Dec 3.7 05:27:15 10° N 05:28:35 17° N 05:28:35 17° N visible
11 Dec 3.7 07:11:47 10° NNW 07:12:36 12° NNW 07:12:36 12° NNW visible
12 Dec 4.3 04:00:01 10° NNE 04:00:30 12° NNE 04:00:30 12° NNE visible
12 Dec 3.7 05:43:09 10° N 05:44:29 16° N 05:44:29 16° N visible
12 Dec 3.8 07:28:26 10° NNW 07:28:29 10° NNW 07:28:29 10° NNW visible
12 Dec 4.4 17:35:18 10° W 17:37:15 12° WNW 17:39:14 10° WNW visible
13 Dec 4.2 04:15:40 10° NNE 04:16:19 13° NNE 04:16:19 13° NNE visible
13 Dec 3.7 05:59:00 10° N 06:00:18 16° N 06:00:18 16° N visible
14 Dec 4.1 04:31:17 10° NNE 04:32:03 14° NNE 04:32:03 14° NNE visible
14 Dec 3.7 06:14:48 10° N 06:16:02 15° N 06:16:02 15° N visible
15 Dec 4.0 04:46:50 10° NNE 04:47:42 15° N 04:47:42 15° N visible
15 Dec 3.7 06:30:34 10° N 06:31:41 14° NNW 06:31:41 14° NNW visible
16 Dec 4.0 05:02:20 10° N 05:03:17 15° N 05:03:17 15° N visible
16 Dec 3.7 06:46:20 10° N 06:47:15 13° NNW 06:47:15 13° NNW visible
17 Dec 3.9 05:17:46 10° N 05:18:46 15° N 05:18:46 15° N visible
17 Dec 3.8 07:02:06 10° NNW 07:02:44 11° NNW 07:02:44 11° NNW visible
18 Dec 4.5 03:50:07 10° NNE 03:50:13 11° NNE 03:50:13 11° NNE visible
18 Dec 3.9 05:33:09 10° N 05:34:10 15° N 05:34:10 15° N visible
18 Dec 3.8 07:18:01 10° NNW 07:18:08 10° NNW 07:18:08 10° NNW visible
